Location: Mountain Grove
(34.0887°N, 86.6172°W)
Time: 23:52:09
(UTC+00:00)

ADEOS II - Pass Details

Date: 14 July 2020
Orbit: 799 x 801 km, 98.5° (Epoch: 12 August)

Event Time Altitude Azimuth Distance (km) Brightness Sun altitude
Rises 08:04:08 0° 12° (NNE) 3,313 6.4 -26.1°
Reaches altitude 10° 08:06:28 10° 13° (NNE) 2,379 5.4 -25.8°
Maximum altitude 08:11:45 89° 97° (E) 804 2.0 -25.2°
Enters shadow 08:12:21 71° 192° (SSW) 845 1.9 -25.1°
